Wind_Speed
107 105 100 92 83 76 72 67 61 57 56 56 58 61 61 58 58 60 59 58 56 57 61 63 61 62 62 62 64 66 69 74 80 87 97 102 106 110 113 116 118 116
109 106 101 93 83 77 74 70 65 60 57 56 57 59 58 56 55 56 56 56 55 56 61 62 61 62 64 63 65 66 68 73 78 85 94 100 105 110 114 117 118 116
111 107 101 94 84 78 74 72 68 64 60 58 57 57 56 54 53 53 54 54 54 56 60 61 62 63 64 65 65 65 67 71 76 84 92 98 103 109 113 115 117 118
112 107 101 93 85 78 75 72 69 65 63 61 58 56 55 53 50 51 52 52 53 56 59 60 62 64 65 66 66 66 68 70 74 82 91 96 101 106 111 114 116 120
112 107 101 93 85 79 76 73 70 66 64 63 60 56 53 51 48 48 51 51 51 54 58 60 62 63 65 66 67 67 68 69 73 81 89 95 98 103 109 114 117 121
112 108 102 94 86 80 77 74 71 67 65 64 61 57 52 49 46 47 49 50 50 53 57 59 60 62 64 66 67 67 68 70 73 79 87 94 96 101 109 115 119 122
114 110 104 96 87 80 77 74 71 69 67 64 62 58 52 47 45 45 47 48 49 51 56 59 59 59 62 65 66 67 67 70 75 78 85 92 96 103 111 118 121 123
114 111 106 98 88 80 76 74 71 69 68 65 62 58 52 46 43 44 46 47 47 51 56 58 57 58 60 63 65 66 67 71 75 78 84 91 97 105 113 119 123 123
113 111 106 98 89 80 76 74 70 69 68 66 63 59 52 46 43 43 44 45 46 50 55 58 57 57 59 61 64 65 66 70 75 78 83 91 99 106 113 120 123 123
114 111 106 99 90 81 76 72 70 69 68 66 63 59 53 46 43 42 42 43 45 49 54 56 57 57 58 61 63 65 66 70 75 79 84 92 100 107 114 120 122 122
115 112 108 100 91 83 77 72 69 68 67 66 63 60 54 46 42 41 40 41 44 49 53 55 56 56 57 60 63 65 67 70 75 80 85 93 101 108 114 119 122 124
115 113 109 101 91 83 77 72 68 67 67 65 62 59 55 46 41 40 39 39 44 48 52 55 56 56 57 60 63 65 67 70 76 81 87 94 101 107 113 119 123 126
116 113 109 101 92 83 77 72 68 66 65 65 61 58 54 47 40 38 37 38 43 48 51 55 56 56 58 61 63 65 67 70 76 82 88 94 100 106 112 118 124 127
116 114 109 101 93 84 77 71 67 65 64 63 61 57 53 47 40 37 36 37 42 47 50 54 56 56 58 61 63 66 68 71 76 83 88 94 98 104 112 118 123 125
117 114 108 101 93 85 77 71 67 64 63 61 60 56 52 47 40 36 34 36 41 46 49 53 55 56 58 61 63 66 68 71 77 83 88 92 97 104 111 118 122 123
117 114 107 100 93 85 78 70 65 63 62 60 58 55 51 46 40 35 34 35 40 45 49 53 55 56 58 61 64 66 68 72 77 83 87 92 98 105 112 117 122 123
117 113 106 99 92 85 78 70 65 62 61 59 57 53 50 46 40 35 34 35 39 45 48 52 55 56 58 61 64 66 68 72 77 82 86 91 98 106 112 116 121 124
116 111 104 98 91 84 77 70 65 61 59 58 56 52 49 46 40 35 34 35 39 45 49 53 55 55 57 60 63 66 68 72 77 82 86 92 99 105 111 115 119 123
116 109 101 95 90 84 76 69 65 61 58 57 56 52 48 46 40 36 34 35 39 44 49 53 54 55 56 59 62 65 68 72 76 82 86 92 99 105 109 114 118 122
114 106 98 93 88 82 75 68 64 60 57 55 54 50 48 45 41 36 35 35 39 44 49 53 54 54 55 58 61 65 68 72 76 81 86 92 98 104 108 113 118 121
113 104 96 90 85 81 74 67 63 60 56 54 52 49 46 45 41 36 35 36 39 44 49 53 53 52 54 56 59 63 67 72 77 81 85 90 97 103 108 112 117 121
111 101 94 88 83 79 73 66 62 59 54 52 51 47 44 43 40 36 34 36 39 43 48 52 52 51 53 55 58 62 66 71 77 81 84 89 96 103 107 111 116 120
108 99 92 86 81 77 71 64 60 57 53 51 50 46 43 42 39 36 34 35 40 43 47 50 50 49 52 54 57 60 65 70 76 81 84 88 96 103 107 111 115 119
106 97 90 84 79 75 68 62 59 56 52 50 49 46 43 40 38 35 33 34 39 43 46 49 48 48 51 54 56 60 64 70 76 81 85 89 95 102 106 109 114 118
103 95 88 82 77 73 67 61 58 55 51 49 47 45 42 40 37 35 32 33 38 42 44 46 46 46 50 53 55 59 64 70 75 80 85 89 94 100 105 107 112 116
100 93 86 80 75 71 65 60 57 53 50 48 46 44 42 40 37 34 32 32 36 41 42 43 43 44 49 52 54 59 64 69 74 79 85 89 94 99 103 106 110 114
Wind_Direction
339 337 335 332 328 324 321 317 311 305 300 295 290 288 286 283 279 275 272 269 265 259 257 255 251 247 242 237 234 230 227 224 220 217 216 214 210 208 209 211 212 213
339 338 335 332 329 326 323 319 315 309 303 299 294 290 288 286 281 276 272 268 264 258 255 253 250 246 241 236 233 229 227 224 220 216 214 213 211 208 209 210 210 211
339 338 336 333 329 327 324 321 317 312 307 302 297 293 291 288 282 277 272 267 263 258 254 251 248 244 240 236 233 229 226 224 221 217 212 210 210 208 209 209 209 209
340 338 336 333 330 327 324 321 318 314 310 305 300 296 294 290 284 278 272 267 262 257 253 250 247 243 238 235 232 228 226 223 221 218 212 209 208 207 208 209 208 208
340 338 336 333 330 327 325 322 319 315 311 306 302 299 296 292 287 279 272 266 260 256 252 249 246 242 237 234 231 227 224 222 220 218 213 209 206 205 206 207 207 208
340 338 336 333 330 328 325 323 320 316 311 307 303 301 298 295 289 281 273 266 259 254 250 248 245 241 236 233 230 226 223 220 218 216 213 209 205 202 204 206 207 207
340 338 336 334 331 328 325 323 320 316 311 307 304 301 300 297 292 282 273 266 259 252 248 247 244 240 236 232 229 225 221 219 217 214 211 208 204 201 202 204 206 207
340 338 336 334 330 328 325 323 321 316 311 307 304 302 301 299 294 284 274 265 258 251 247 245 242 238 235 232 228 224 220 218 217 213 210 207 204 202 202 203 205 206
340 338 336 333 330 327 325 323 321 316 311 307 305 303 302 300 295 285 275 265 257 250 246 244 241 237 233 230 227 223 219 217 216 213 209 206 204 202 202 203 205 205
339 338 336 333 330 327 324 323 321 317 311 307 305 303 302 301 296 286 275 265 256 249 245 243 240 236 232 228 225 222 218 216 215 212 209 206 204 203 203 203 204 205
339 338 335 333 330 327 324 322 321 317 311 307 304 302 302 301 296 287 275 264 255 248 244 241 238 235 230 227 224 221 217 215 214 212 209 207 205 203 203 204 204 204
339 337 335 332 330 326 323 322 321 317 312 307 304 302 301 300 296 287 275 262 253 247 243 239 236 233 228 226 223 220 216 214 213 212 210 208 206 205 204 204 204 204
338 337 335 332 329 326 323 322 321 317 312 307 303 301 300 299 296 286 274 262 252 247 242 238 235 231 227 224 222 219 215 213 213 212 210 209 208 206 205 204 203 204
338 336 334 332 329 326 322 322 321 317 312 307 303 301 299 298 295 287 274 261 252 246 242 238 234 230 226 223 221 218 215 213 213 213 211 210 208 207 206 204 203 204
337 336 334 331 328 325 322 322 321 317 312 307 303 300 299 297 294 287 274 261 252 246 241 237 233 229 225 223 220 218 214 213 213 213 212 210 208 207 206 205 204 204
336 335 333 330 328 325 322 322 321 317 313 308 303 300 298 296 294 286 274 261 252 246 241 236 233 229 225 222 220 217 214 212 213 214 213 211 208 207 206 205 204 204
336 334 332 330 327 324 321 321 321 317 313 308 303 300 297 295 292 285 274 261 252 246 240 235 232 229 226 222 219 216 214 212 213 214 213 211 209 207 207 206 205 205
335 334 331 329 327 323 321 321 321 317 313 309 303 300 297 294 291 285 274 262 252 246 240 234 231 229 226 223 219 216 213 212 212 214 213 211 209 208 208 207 206 206
334 333 331 328 326 323 320 321 320 316 312 308 303 300 296 293 289 284 274 262 253 246 240 235 231 228 225 223 219 215 212 211 211 213 213 211 210 210 209 208 207 207
333 332 330 328 326 322 320 321 319 315 311 307 302 299 296 292 288 283 274 263 253 246 240 235 232 227 224 221 219 215 212 210 210 212 212 211 211 210 210 209 208 208
332 331 329 327 325 322 320 321 319 314 310 306 302 298 295 291 287 282 273 263 254 246 240 236 232 228 223 220 218 215 212 209 209 210 211 211 211 211 211 210 209 209
331 330 328 326 324 321 320 321 318 313 309 305 301 297 294 290 286 281 273 263 254 246 239 235 232 228 223 219 216 214 211 208 208 209 210 210 210 211 211 211 210 210
330 329 327 326 324 321 320 320 317 312 308 304 301 297 294 289 286 281 272 263 253 246 239 235 231 227 223 218 213 212 211 208 207 208 209 209 209 210 211 212 212 211
329 328 327 325 323 321 320 320 317 312 308 304 300 298 294 290 286 281 272 262 253 245 239 235 230 226 223 218 211 209 209 208 206 206 208 208 209 210 212 212 212 212
328 327 326 324 322 321 321 320 316 312 308 304 300 298 294 290 286 281 273 262 252 244 237 233 229 225 222 219 212 206 207 207 206 205 207 208 209 210 211 212 212 213
327 326 325 323 322 321 321 320 315 312 309 304 301 298 295 291 287 281 273 261 250 242 235 230 227 224 222 220 214 206 204 206 205 204 206 208 209 210 211 212 213 213
Height
10301 10290 10279 10270 10262 10253 10245 10240 10235 10230 10224 10217 10211 10205 10199 10195 10191 10186 10184 10183 10182 10181 10179 10178 10181 10181 10182 10183 10186 10191 10195 10200 10208 10216 10227 10238 10247 10254 10264 10276 10289 10302
10290 10279 10267 10258 10250 10241 10233 10226 10220 10217 10212 10205 10199 10193 10189 10185 10181 10177 10174 10172 10171 10170 10168 10168 10170 10171 10172 10174 10176 10181 10186 10190 10197 10205 10215 10227 10237 10245 10252 10263 10276 10291
10279 10268 10257 10246 10238 10230 10223 10215 10208 10203 10198 10194 10188 10182 10178 10174 10170 10167 10164 10162 10161 10159 10158 10158 10159 10161 10163 10164 10167 10172 10176 10182 10189 10195 10204 10214 10225 10235 10243 10252 10266 10280
10269 10257 10246 10235 10226 10219 10212 10205 10198 10192 10186 10182 10176 10172 10168 10164 10160 10157 10154 10152 10151 10149 10148 10149 10149 10150 10154 10155 10158 10164 10168 10174 10180 10186 10195 10204 10214 10226 10234 10243 10257 10269
10258 10247 10235 10225 10216 10208 10201 10194 10188 10182 10175 10170 10165 10162 10158 10154 10151 10148 10145 10142 10141 10139 10138 10138 10139 10141 10145 10147 10150 10155 10160 10166 10172 10178 10187 10195 10205 10216 10225 10234 10247 10259
10247 10236 10225 10215 10206 10197 10190 10183 10177 10171 10165 10159 10155 10152 10149 10145 10142 10139 10135 10133 10131 10130 10128 10128 10129 10133 10137 10139 10142 10147 10152 10158 10164 10170 10178 10187 10197 10207 10215 10225 10236 10250
10237 10226 10215 10205 10197 10188 10180 10173 10167 10161 10154 10149 10145 10142 10139 10136 10133 10130 10127 10124 10122 10121 10119 10118 10121 10125 10129 10132 10135 10139 10144 10151 10156 10161 10169 10178 10188 10197 10205 10215 10226 10240
10228 10216 10206 10196 10188 10181 10172 10164 10159 10152 10144 10139 10135 10131 10129 10127 10125 10121 10118 10115 10113 10112 10110 10110 10112 10116 10121 10125 10128 10132 10137 10142 10148 10154 10160 10168 10177 10187 10196 10206 10217 10231
10218 10207 10196 10187 10179 10172 10163 10156 10150 10143 10135 10129 10125 10121 10119 10118 10116 10113 10109 10107 10105 10103 10102 10102 10104 10108 10113 10117 10120 10124 10128 10134 10141 10147 10153 10158 10167 10177 10188 10198 10209 10222
10208 10197 10188 10178 10170 10162 10155 10148 10142 10134 10126 10120 10116 10112 10110 10109 10108 10105 10102 10099 10097 10095 10094 10094 10096 10100 10105 10109 10113 10116 10121 10127 10133 10140 10146 10150 10157 10168 10179 10190 10201 10213
10197 10187 10178 10169 10161 10153 10145 10139 10133 10126 10118 10112 10107 10104 10101 10101 10100 10096 10094 10092 10090 10088 10087 10087 10089 10093 10097 10101 10105 10109 10113 10120 10127 10133 10138 10143 10149 10159 10170 10182 10193 10203
10188 10177 10167 10159 10152 10144 10136 10130 10124 10117 10110 10103 10099 10095 10093 10093 10092 10089 10086 10085 10083 10081 10080 10079 10081 10085 10090 10093 10097 10101 10106 10113 10120 10125 10130 10136 10143 10153 10163 10174 10186 10194
10178 10168 10158 10149 10141 10133 10126 10121 10115 10109 10101 10094 10091 10088 10084 10084 10084 10082 10079 10078 10076 10074 10073 10073 10075 10078 10082 10085 10090 10094 10099 10106 10113 10118 10124 10130 10138 10148 10158 10169 10179 10187
10169 10158 10148 10140 10132 10123 10116 10111 10106 10099 10092 10086 10082 10079 10076 10075 10075 10074 10072 10071 10070 10068 10067 10067 10069 10072 10075 10078 10082 10087 10093 10099 10106 10111 10117 10125 10134 10144 10154 10164 10173 10182
10159 10149 10139 10130 10122 10114 10107 10102 10097 10090 10083 10077 10073 10070 10068 10067 10067 10066 10065 10064 10063 10062 10062 10062 10063 10066 10068 10071 10074 10079 10086 10093 10099 10105 10112 10120 10130 10139 10148 10158 10168 10177
10149 10140 10130 10121 10113 10104 10097 10093 10088 10081 10074 10069 10064 10062 10060 10059 10059 10059 10057 10057 10057 10055 10056 10056 10057 10059 10062 10064 10068 10072 10079 10087 10093 10100 10107 10116 10125 10134 10143 10153 10162 10171
10140 10131 10121 10111 10103 10095 10087 10083 10078 10072 10065 10060 10056 10053 10052 10051 10051 10051 10050 10050 10050 10049 10049 10050 10051 10053 10056 10058 10062 10067 10073 10082 10089 10096 10104 10112 10121 10129 10137 10147 10156 10165
10131 10123 10113 10103 10094 10085 10078 10073 10068 10063 10057 10051 10047 10045 10044 10042 10043 10043 10043 10043 10043 10042 10042 10043 10045 10048 10051 10054 10057 10061 10068 10076 10085 10092 10101 10109 10117 10124 10132 10141 10150 10158
10122 10114 10105 10095 10086 10077 10069 10064 10059 10053 10048 10042 10039 10037 10036 10035 10035 10036 10035 10035 10036 10035 10036 10037 10038 10041 10046 10049 10053 10057 10062 10071 10080 10088 10096 10104 10112 10120 10128 10136 10144 10152
10112 10104 10095 10086 10077 10068 10060 10055 10050 10044 10039 10034 10031 10029 10028 10027 10027 10028 10028 10028 10029 10029 10029 10030 10031 10035 10040 10044 10048 10052 10057 10065 10073 10082 10090 10099 10107 10115 10123 10131 10140 10147
10101 10095 10086 10077 10069 10059 10052 10047 10041 10035 10031 10026 10023 10022 10021 10020 10020 10021 10021 10021 10022 10022 10023 10023 10025 10030 10035 10039 10043 10047 10052 10059 10067 10076 10085 10093 10101 10109 10117 10126 10134 10142
10090 10084 10076 10068 10060 10051 10044 10039 10033 10027 10023 10018 10015 10014 10013 10013 10012 10013 10015 10015 10015 10015 10016 10017 10020 10025 10029 10033 10037 10042 10047 10054 10060 10069 10079 10087 10095 10103 10111 10120 10128 10137
10078 10073 10066 10059 10051 10043 10036 10031 10025 10019 10014 10010 10007 10005 10005 10005 10005 10006 10008 10008 10008 10008 10009 10011 10014 10019 10023 10027 10031 10036 10043 10048 10054 10063 10072 10081 10088 10095 10103 10113 10122 10131
10068 10062 10056 10049 10042 10034 10028 10022 10016 10011 10006 10002 9999 9997 9996 9997 9998 9999 10001 10002 10001 10002 10003 10005 10008 10013 10017 10021 10025 10030 10036 10042 10048 10056 10065 10073 10081 10088 10095 10105 10115 10125
10058 10052 10045 10039 10032 10025 10019 10014 10008 10002 9998 9994 9991 9989 9988 9989 9990 9991 9994 9996 9995 9996 9997 9999 10003 10007 10011 10015 10019 10023 10029 10035 10041 10049 10058 10066 10074 10081 10089 10098 10108 10118
10048 10042 10035 10029 10022 10016 10010 10004 9998 9994 9991 9986 9983 9981 9980 9980 9982 9984 9986 9989 9989 9990 9992 9994 9997 10001 10004 10009 10013 10017 10022 10028 10034 10042 10051 10058 10066 10074 10082 10091 10101 10112